sat.trackr.live / text

‹ back to catalog

ATHENA

NORAD 46275 · 2020-061D

PAYLOAD ACTIVE UNKNOWN

§ Identity

Operator
Country
US
Launch date
2020-09-03
Launch site
FRGUI
Launch vehicle
Mass (kg)
RCS (m²)

External: N2YO · Heavens-Above · Gunter

§ Orbital elements

Epoch: 2026-05-25T02:57:36.819648Z

Period
93.00 min
Inclination
97.1923°
Eccentricity
0.0002561
Mean motion
15.48308919 rev/d
Perigee alt
419.9 km
Apogee alt
423.4 km
Semi-major
6,799.8 km
B*
2.7130e-4
RAAN
209.5451°
Arg perigee
103.4719°
Mean anomaly
256.6817°
Rev number
31,858

§ Raw data

ATHENA1 46275U 20061D   26145.12334282  .00014249  00000+0  27130-3 0  99912 46275  97.1923 209.5451 0002561 103.4719 256.6817 15.48308919318580

JSON: /api/v1/satellites/46275 · /tle

For live sub-satellite position, see the globe view (requires WebGL).

§ Visibility from observer

Set your observer location to see the next 7 days of passes ≥ 10°. The values pass through the URL so the page stays shareable.

No JS? Fill the form by hand. The geolocation button needs JavaScript.